Location: Partizánske
(48.6285°N, 18.3769°E)
Time: 02:48:40
(UTC+02:00)

ISS - Visible Passes

Search period start: 18 May 2021 00:00
Search period end: 28 May 2021 00:00
Orbit: 417 x 422 km, 51.6° (Epoch: 17 May)

Date Brightness Start Highest point End Pass type
(mag) Time Alt. Az. Time Alt. Az. Time Alt. Az.
18 May -2.9 01:20:27 10° WNW 01:22:53 44° WNW 01:22:53 44° WNW visible
18 May -3.8 21:18:58 10° WSW 21:22:19 68° SSE 21:25:40 10° ENE visible
18 May -2.9 22:55:56 10° W 22:59:14 50° N 23:02:32 10° ENE visible
19 May -3.3 00:32:59 10° WNW 00:36:20 62° NNE 00:36:28 61° NNE visible
19 May -3.1 22:08:22 10° W 22:11:42 57° NNW 22:15:03 10° ENE visible
19 May -3.0 23:45:29 10° WNW 23:48:49 53° N 23:50:16 29° ENE visible
20 May -1.5 01:22:22 10° WNW 01:23:12 16° WNW 01:23:12 16° WNW visible
20 May -3.4 21:20:50 10° W 21:24:12 69° NNW 21:27:34 10° ENE visible
20 May -2.8 22:57:58 10° WNW 23:01:17 49° N 23:04:10 13° ENE visible
21 May -2.7 00:34:52 10° WNW 00:37:06 38° WNW 00:37:06 38° WNW visible
21 May -2.8 22:10:26 10° WNW 22:13:43 48° N 22:17:00 10° ENE visible
21 May -3.7 23:47:24 10° WNW 23:50:46 78° NNE 23:51:03 70° ENE visible
22 May -2.8 21:22:52 10° W 21:26:10 50° N 21:29:28 10° ENE visible
22 May -3.4 22:59:55 10° WNW 23:03:16 62° NNE 23:05:02 25° E visible
23 May -1.6 00:36:50 10° WNW 00:37:58 18° W 00:37:58 18° W visible
23 May -3.0 22:12:25 10° WNW 22:15:43 53° N 22:19:02 10° E visible
23 May -3.2 23:49:17 10° WNW 23:51:58 46° WSW 23:51:58 46° WSW visible
24 May -2.8 21:24:53 10° WNW 21:28:10 49° N 21:31:28 10° E visible
24 May -3.9 23:01:46 10° WNW 23:05:09 80° SSW 23:06:00 47° SE visible
25 May -3.7 22:14:16 10° WNW 22:17:39 78° NNE 22:20:04 18° ESE visible
25 May -1.9 23:51:22 10° W 23:53:00 21° WSW 23:53:00 21° WSW visible
26 May -3.3 21:26:47 10° WNW 21:30:08 62° NNE 21:33:29 10° E visible
26 May -3.1 23:03:42 10° WNW 23:06:52 38° SSW 23:07:05 37° SSW visible
27 May -3.6 22:16:07 10° WNW 22:19:27 56° SSW 22:21:12 24° SE visible
